Location: Rodson Ranch
(38.7188°N, 119.3202°W)
Time: 17:24:11
(UTC+00:00)

Cosmos 1315 Rocket - Pass Details

Date: 29 October 2020
Orbit: 530 x 567 km, 81.2° (Epoch: 22 November)

Event Time Altitude Azimuth Distance (km) Brightness Sun altitude
Rises 13:17:43 0° 353° (N) 2,765 6.3 -13.0°
Reaches altitude 10° 13:19:55 10° 356° (N) 1,868 5.4 -12.6°
Maximum altitude 13:24:01 67° 80° (E) 616 3.3 -11.8°
Drops below altitude 10° 13:28:07 10° 163° (SSE) 1,859 5.9 -11.0°
Sets 13:30:18 0° 166° (SSE) 2,750 6.7 -10.6°
